Time,TemperatureF,DewpointF,PressureIn,WindDirection,WindDirectionDegrees,WindSpeedMPH,WindSpeedGustMPH,Humidity,HourlyPrecipIn,Conditions,Clouds,dailyrainin,SolarRadiationWatts/m^2,SoftwareType,DateUTC
2013-04-08 00:00:00,53.4,38.5,29.75,NNW,339,2.0,8.0,57,0.00,,,0.00,0.0,WeatherDisplay:10.37,2013-04-07 22:00:00,
2013-04-08 00:05:00,53.3,38.0,29.75,NNW,345,6.0,12.0,56,0.00,,,0.00,0.0,WeatherDisplay:10.37,2013-04-07 22:05:00,
2013-04-08 00:10:00,53.3,38.4,29.75,NNW,344,5.0,12.0,57,0.00,,,0.00,0.0,WeatherDisplay:10.37,2013-04-07 22:10:00,
2013-04-08 00:15:00,53.2,38.4,29.75,North,350,3.0,12.0,57,0.00,,,0.00,0.0,WeatherDisplay:10.37,2013-04-07 22:15:00,
2013-04-08 00:20:00,53.2,38.4,29.75,NNW,343,5.0,9.0,57,0.00,,,0.00,0.0,WeatherDisplay:10.37,2013-04-07 22:20:00,
2013-04-08 00:30:00,52.9,38.1,29.76,North,0,6.0,8.0,57,0.00,,,0.00,0.0,WeatherDisplay:10.37,2013-04-07 22:30:00,
2013-04-08 00:35:00,52.9,38.1,29.76,North,358,3.0,9.0,57,0.00,,,0.00,0.0,WeatherDisplay:10.37,2013-04-07 22:35:00,
2013-04-08 00:40:00,52.8,38.0,29.76,North,354,5.0,12.0,57,0.00,,,0.00,0.0,WeatherDisplay:10.37,2013-04-07 22:40:00,
2013-04-08 00:45:00,52.7,37.9,29.76,North,357,3.0,12.0,57,0.00,,,0.00,0.0,WeatherDisplay:10.37,2013-04-07 22:45:00,
2013-04-08 00:50:00,52.7,37.9,29.76,North,360,13.0,17.0,57,0.00,,,0.00,0.0,WeatherDisplay:10.37,2013-04-07 22:50:00,
2013-04-08 01:00:00,52.7,37.4,29.76,North,355,7.0,15.0,56,0.00,,,0.00,0.0,WeatherDisplay:10.37,2013-04-07 23:00:00,
2013-04-08 01:05:00,52.5,37.7,29.76,North,349,2.0,15.0,57,0.00,,,0.00,0.0,WeatherDisplay:10.37,2013-04-07 23:05:00,
2013-04-08 01:15:00,52.3,37.5,29.77,North,356,6.0,14.0,57,0.00,,,0.00,0.0,WeatherDisplay:10.37,2013-04-07 23:15:00,
2013-04-08 01:20:00,52.3,37.5,29.77,North,352,2.0,14.0,57,0.00,,,0.00,0.0,WeatherDisplay:10.37,2013-04-07 23:20:00,
2013-04-08 01:25:00,52.1,37.8,29.77,North,350,9.0,13.0,58,0.00,,,0.00,0.0,WeatherDisplay:10.37,2013-04-07 23:25:00,
2013-04-08 01:30:00,52.0,37.7,29.77,North,1,7.0,15.0,58,0.00,,,0.00,0.0,WeatherDisplay:10.37,2013-04-07 23:30:00,
2013-04-08 01:40:00,51.8,37.5,29.77,North,10,6.0,18.0,58,0.00,,,0.00,0.0,WeatherDisplay:10.37,2013-04-07 23:40:00,
2013-04-08 01:45:00,51.6,37.7,29.77,North,3,6.0,13.0,59,0.00,,,0.00,0.0,WeatherDisplay:10.37,2013-04-07 23:45:00,
2013-04-08 01:50:00,51.5,38.1,29.77,North,357,5.0,12.0,60,0.00,,,0.00,0.0,WeatherDisplay:10.37,2013-04-07 23:50:00,
2013-04-08 01:55:00,51.4,38.0,29.77,North,351,3.0,12.0,60,0.00,,,0.00,0.0,WeatherDisplay:10.37,2013-04-07 23:55:00,
2013-04-08 02:05:00,51.2,37.8,29.77,North,5,6.0,10.0,60,0.00,,,0.00,0.0,WeatherDisplay:10.37,2013-04-08 00:05:00,
2013-04-08 02:10:00,51.0,38.0,29.77,North,357,2.0,10.0,61,0.00,,,0.00,0.0,WeatherDisplay:10.37,2013-04-08 00:10:00,
2013-04-08 02:15:00,50.9,37.9,29.76,NNW,347,5.0,10.0,61,0.00,,,0.00,0.0,WeatherDisplay:10.37,2013-04-08 00:15:00,
2013-04-08 02:20:00,50.8,38.3,29.76,North,354,3.0,12.0,62,0.00,,,0.00,0.0,WeatherDisplay:10.37,2013-04-08 00:20:00,
2013-04-08 02:25:00,50.8,38.2,29.76,North,3,5.0,12.0,62,0.00,,,0.00,0.0,WeatherDisplay:10.37,2013-04-08 00:25:00,
2013-04-08 02:30:00,50.7,38.1,29.76,North,357,5.0,12.0,62,0.00,,,0.00,0.0,WeatherDisplay:10.37,2013-04-08 00:30:00,
2013-04-08 02:35:00,50.6,38.5,29.76,NNW,348,2.0,14.0,63,0.00,,,0.00,0.0,WeatherDisplay:10.37,2013-04-08 00:35:00,
2013-04-08 02:40:00,50.5,38.3,29.76,North,353,5.0,9.0,63,0.00,,,0.00,0.0,WeatherDisplay:10.37,2013-04-08 00:40:00,
2013-04-08 02:45:00,50.4,38.3,29.76,North,355,6.0,12.0,63,0.00,,,0.00,0.0,WeatherDisplay:10.37,2013-04-08 00:45:00,
2013-04-08 02:55:00,50.4,38.3,29.76,North,358,2.0,14.0,63,0.00,,,0.00,0.0,WeatherDisplay:10.37,2013-04-08 00:55:00,
2013-04-08 03:00:00,50.2,38.1,29.76,North,353,8.0,13.0,63,0.00,,,0.00,0.0,WeatherDisplay:10.37,2013-04-08 01:00:00,
2013-04-08 03:05:00,50.2,38.5,29.76,North,355,7.0,13.0,64,0.00,,,0.00,0.0,WeatherDisplay:10.37,2013-04-08 01:05:00,
2013-04-08 03:10:00,50.2,38.5,29.76,North,353,7.0,13.0,64,0.00,,,0.00,0.0,WeatherDisplay:10.37,2013-04-08 01:10:00,
2013-04-08 03:20:00,50.0,38.3,29.77,North,349,1.0,8.0,64,0.00,,,0.00,0.0,WeatherDisplay:10.37,2013-04-08 01:20:00,
2013-04-08 03:30:00,49.9,38.2,29.77,North,353,6.0,10.0,64,0.00,,,0.00,0.0,WeatherDisplay:10.37,2013-04-08 01:30:00,
2013-04-08 03:35:00,49.9,38.2,29.77,North,1,2.0,8.0,64,0.00,,,0.00,0.0,WeatherDisplay:10.37,2013-04-08 01:35:00,
2013-04-08 03:40:00,49.8,38.1,29.77,North,351,5.0,8.0,64,0.00,,,0.00,0.0,WeatherDisplay:10.37,2013-04-08 01:40:00,
2013-04-08 03:45:00,49.7,38.4,29.77,North,358,6.0,9.0,65,0.00,,,0.00,0.0,WeatherDisplay:10.37,2013-04-08 01:45:00,
2013-04-08 03:55:00,49.6,37.9,29.76,North,352,7.0,12.0,64,0.00,,,0.00,0.0,WeatherDisplay:10.37,2013-04-08 01:55:00,
2013-04-08 04:05:00,49.6,38.3,29.77,North,352,7.0,13.0,65,0.00,,,0.00,0.0,WeatherDisplay:10.37,2013-04-08 02:05:00,
2013-04-08 04:10:00,49.5,38.2,29.76,North,360,7.0,12.0,65,0.00,,,0.00,0.0,WeatherDisplay:10.37,2013-04-08 02:10:00,
2013-04-08 04:15:00,49.5,38.2,29.76,North,4,7.0,15.0,65,0.00,,,0.00,0.0,WeatherDisplay:10.37,2013-04-08 02:15:00,
2013-04-08 04:20:00,49.5,37.8,29.76,North,6,7.0,13.0,64,0.00,,,0.00,0.0,WeatherDisplay:10.37,2013-04-08 02:20:00,
2013-04-08 04:30:00,49.3,38.0,29.77,NNW,347,6.0,12.0,65,0.00,,,0.00,0.0,WeatherDisplay:10.37,2013-04-08 02:30:00,
2013-04-08 04:35:00,49.2,37.9,29.77,NNW,343,3.0,7.0,65,0.00,,,0.00,0.0,WeatherDisplay:10.37,2013-04-08 02:35:00,
2013-04-08 04:45:00,48.9,38.0,29.77,NNW,337,2.0,7.0,66,0.00,,,0.00,0.0,WeatherDisplay:10.37,2013-04-08 02:45:00,
2013-04-08 04:50:00,48.6,37.8,29.77,NNW,339,2.0,10.0,66,0.00,,,0.00,0.0,WeatherDisplay:10.37,2013-04-08 02:50:00,
2013-04-08 04:55:00,48.3,37.9,29.77,NNW,332,3.0,8.0,67,0.00,,,0.00,0.0,WeatherDisplay:10.37,2013-04-08 02:55:00,
2013-04-08 05:05:00,48.0,38.0,29.77,NNW,340,3.0,7.0,68,0.00,,,0.00,0.0,WeatherDisplay:10.37,2013-04-08 03:05:00,
2013-04-08 05:10:00,48.2,38.1,29.77,NNW,347,1.0,6.0,68,0.00,,,0.00,0.0,WeatherDisplay:10.37,2013-04-08 03:10:00,
2013-04-08 05:25:00,48.4,37.9,29.76,North,352,8.0,12.0,67,0.00,,,0.00,0.0,WeatherDisplay:10.37,2013-04-08 03:25:00,
2013-04-08 05:35:00,48.4,38.0,29.76,North,351,3.0,10.0,67,0.00,,,0.00,0.0,WeatherDisplay:10.37,2013-04-08 03:35:00,
2013-04-08 05:50:00,48.6,37.7,29.77,North,350,3.0,14.0,66,0.00,,,0.00,0.0,WeatherDisplay:10.37,2013-04-08 03:50:00,
2013-04-08 05:55:00,48.5,37.7,29.77,North,359,6.0,12.0,66,0.00,,,0.00,0.0,WeatherDisplay:10.37,2013-04-08 03:55:00,
2013-04-08 06:00:00,48.5,37.7,29.77,North,355,7.0,16.0,66,0.00,,,0.00,0.0,WeatherDisplay:10.37,2013-04-08 04:00:00,
2013-04-08 06:05:00,48.5,37.7,29.77,North,354,3.0,12.0,66,0.00,OVC,,0.00,0.0,WeatherDisplay:10.37,2013-04-08 04:05:00,
2013-04-08 06:10:00,48.4,37.6,29.77,North,357,6.0,13.0,66,0.00,,,0.00,0.0,WeatherDisplay:10.37,2013-04-08 04:10:00,
2013-04-08 06:15:00,48.3,37.5,29.77,North,6,2.0,12.0,66,0.00,OVC,,0.00,0.0,WeatherDisplay:10.37,2013-04-08 04:15:00,
2013-04-08 06:20:00,48.3,37.5,29.77,North,11,3.0,5.0,66,0.00,OVC,,0.00,0.0,WeatherDisplay:10.37,2013-04-08 04:20:00,
2013-04-08 06:25:00,48.3,37.5,29.77,NNE,16,3.0,8.0,66,0.00,OVC,,0.00,0.0,WeatherDisplay:10.37,2013-04-08 04:25:00,
2013-04-08 06:30:00,48.3,37.4,29.77,North,10,2.0,5.0,66,0.00,OVC,,0.00,0.0,WeatherDisplay:10.37,2013-04-08 04:30:00,
2013-04-08 06:40:00,47.9,37.8,29.77,NNE,25,3.0,8.0,68,0.00,OVC,,0.00,5.0,WeatherDisplay:10.37,2013-04-08 04:40:00,
2013-04-08 06:45:00,47.9,37.8,29.77,NNE,26,0.0,6.0,68,0.00,BKN,,0.00,9.0,WeatherDisplay:10.37,2013-04-08 04:45:00,
2013-04-08 06:55:00,47.9,37.8,29.77,NNE,17,1.0,6.0,68,0.00,BKN,,0.00,23.0,WeatherDisplay:10.37,2013-04-08 04:55:00,
2013-04-08 07:00:00,48.0,37.9,29.78,NNE,27,2.0,8.0,68,0.00,BKN,,0.00,30.0,WeatherDisplay:10.37,2013-04-08 05:00:00,
2013-04-08 07:05:00,48.1,37.7,29.78,NNE,15,1.0,6.0,67,0.00,BKN,,0.00,39.0,WeatherDisplay:10.37,2013-04-08 05:05:00,
2013-04-08 07:10:00,48.2,37.8,29.79,North,356,0.0,2.0,67,0.00,BKN,,0.00,46.0,WeatherDisplay:10.37,2013-04-08 05:10:00,
2013-04-08 07:15:00,48.4,37.9,29.79,North,1,0.0,4.0,67,0.00,BKN,,0.00,58.0,WeatherDisplay:10.37,2013-04-08 05:15:00,
2013-04-08 07:20:00,48.5,38.0,29.79,North,357,0.0,9.0,67,0.00,BKN,,0.00,76.0,WeatherDisplay:10.37,2013-04-08 05:20:00,
2013-04-08 07:25:00,48.8,38.0,29.79,North,355,0.0,3.0,66,0.00,BKN,,0.00,88.0,WeatherDisplay:10.37,2013-04-08 05:25:00,
2013-04-08 07:30:00,49.3,38.8,29.78,North,355,1.0,6.0,67,0.00,BKN,,0.00,102.0,WeatherDisplay:10.37,2013-04-08 05:30:00,
2013-04-08 07:35:00,49.4,38.5,29.78,NNE,21,5.0,8.0,66,0.00,BKN,,0.00,111.0,WeatherDisplay:10.37,2013-04-08 05:35:00,
2013-04-08 07:45:00,49.3,38.0,29.79,NNE,18,5.0,10.0,65,0.00,BKN,,0.00,148.0,WeatherDisplay:10.37,2013-04-08 05:45:00,
2013-04-08 07:55:00,49.8,38.9,29.79,North,5,0.0,7.0,66,0.00,BKN,,0.00,165.0,WeatherDisplay:10.37,2013-04-08 05:55:00,
2013-04-08 08:00:00,50.0,38.3,29.79,NNE,29,3.0,7.0,64,0.00,BKN,,0.00,148.0,WeatherDisplay:10.37,2013-04-08 06:00:00,
2013-04-08 08:05:00,49.9,38.2,29.79,NNE,12,3.0,8.0,64,0.00,BKN,,0.00,153.0,WeatherDisplay:10.37,2013-04-08 06:05:00,
2013-04-08 08:10:00,49.6,37.5,29.79,North,2,7.0,10.0,63,0.00,BKN,,0.00,137.0,WeatherDisplay:10.37,2013-04-08 06:10:00,
2013-04-08 08:15:00,49.4,37.3,29.80,North,3,6.0,10.0,63,0.00,BKN,,0.00,158.0,WeatherDisplay:10.37,2013-04-08 06:15:00,
2013-04-08 08:20:00,49.5,37.9,29.80,North,357,3.0,9.0,64,0.00,BKN,,0.00,144.0,WeatherDisplay:10.37,2013-04-08 06:20:00,
2013-04-08 08:30:00,49.6,37.5,29.80,North,358,2.0,8.0,63,0.00,BKN,,0.00,162.0,WeatherDisplay:10.37,2013-04-08 06:30:00,
2013-04-08 08:35:00,49.6,37.9,29.80,North,5,3.0,8.0,64,0.00,BKN,,0.00,183.0,WeatherDisplay:10.37,2013-04-08 06:35:00,
2013-04-08 08:40:00,49.8,38.1,29.80,North,5,2.0,6.0,64,0.00,BKN,,0.00,209.0,WeatherDisplay:10.37,2013-04-08 06:40:00,
2013-04-08 08:45:00,50.1,38.0,29.80,NNE,13,3.0,7.0,63,0.00,BKN,,0.00,246.0,WeatherDisplay:10.37,2013-04-08 06:45:00,
2013-04-08 08:50:00,50.7,38.9,29.80,NNE,14,0.0,7.0,64,0.00,BKN,,0.00,218.0,WeatherDisplay:10.37,2013-04-08 06:50:00,
2013-04-08 08:55:00,50.6,38.0,29.81,North,11,3.0,8.0,62,0.00,BKN,,0.00,239.0,WeatherDisplay:10.37,2013-04-08 06:55:00,
2013-04-08 09:00:00,50.8,38.2,29.81,North,2,5.0,9.0,62,0.00,BKN,,0.00,313.0,WeatherDisplay:10.37,2013-04-08 07:00:00,
2013-04-08 09:05:00,50.6,37.6,29.81,North,5,5.0,10.0,61,0.00,SCT,,0.00,343.0,WeatherDisplay:10.37,2013-04-08 07:05:00,
2013-04-08 09:10:00,50.6,37.6,29.81,North,4,7.0,12.0,61,0.00,SCT,,0.00,359.0,WeatherDisplay:10.37,2013-04-08 07:10:00,
2013-04-08 09:15:00,51.6,38.6,29.81,North,358,1.0,8.0,61,0.00,SCT,,0.00,250.0,WeatherDisplay:10.37,2013-04-08 07:15:00,
2013-04-08 09:20:00,51.7,38.2,29.81,North,353,6.0,9.0,60,0.00,BKN,,0.00,172.0,WeatherDisplay:10.37,2013-04-08 07:20:00,
2013-04-08 09:25:00,51.0,38.0,29.81,North,3,6.0,10.0,61,0.00,BKN,,0.00,244.0,WeatherDisplay:10.37,2013-04-08 07:25:00,
2013-04-08 09:40:00,52.4,38.5,29.81,North,8,5.0,8.0,59,0.00,FEW,,0.00,508.0,WeatherDisplay:10.37,2013-04-08 07:40:00,
2013-04-08 09:45:00,52.8,38.4,29.81,North,10,2.0,7.0,58,0.00,FEW,,0.00,515.0,WeatherDisplay:10.37,2013-04-08 07:45:00,
2013-04-08 09:50:00,53.3,38.9,29.81,NNE,27,5.0,9.0,58,0.00,FEW,,0.00,503.0,WeatherDisplay:10.37,2013-04-08 07:50:00,
2013-04-08 09:55:00,53.4,38.5,29.81,NE,40,8.0,12.0,57,0.00,FEW,,0.00,519.0,WeatherDisplay:10.37,2013-04-08 07:55:00,
2013-04-08 10:00:00,52.9,38.1,29.81,NE,48,8.0,12.0,57,0.00,FEW,,0.00,548.0,WeatherDisplay:10.37,2013-04-08 08:00:00,
2013-04-08 10:05:00,53.6,38.2,29.81,NE,45,2.0,10.0,56,0.00,FEW,,0.00,589.0,WeatherDisplay:10.37,2013-04-08 08:05:00,
2013-04-08 10:10:00,53.7,39.3,29.81,NE,51,6.0,8.0,58,0.00,FEW,,0.00,485.0,WeatherDisplay:10.37,2013-04-08 08:10:00,
2013-04-08 10:15:00,54.6,40.1,29.81,NE,53,0.0,8.0,58,0.00,FEW,,0.00,584.0,WeatherDisplay:10.37,2013-04-08 08:15:00,
2013-04-08 10:20:00,54.2,38.9,29.81,NE,46,2.0,6.0,56,0.00,SCT,,0.00,536.0,WeatherDisplay:10.37,2013-04-08 08:20:00,
2013-04-08 10:25:00,54.5,40.9,29.82,ENE,59,1.0,4.0,60,0.00,SCT,,0.00,522.0,WeatherDisplay:10.37,2013-04-08 08:25:00,
2013-04-08 10:35:00,55.7,39.3,29.82,ENE,58,0.0,2.0,54,0.00,FEW,,0.00,640.0,WeatherDisplay:10.37,2013-04-08 08:35:00,
2013-04-08 10:45:00,56.7,39.8,29.83,NNE,32,2.0,5.0,53,0.00,FEW,,0.00,636.0,WeatherDisplay:10.37,2013-04-08 08:45:00,
2013-04-08 10:50:00,57.2,40.3,29.83,NW,305,0.0,3.0,53,0.00,FEW,,0.00,629.0,WeatherDisplay:10.37,2013-04-08 08:50:00,
2013-04-08 10:55:00,57.5,39.0,29.83,WNW,301,0.0,4.0,50,0.00,FEW,,0.00,585.0,WeatherDisplay:10.37,2013-04-08 08:55:00,
2013-04-08 11:00:00,56.8,38.3,29.83,NW,307,0.0,4.0,50,0.00,SCT,,0.00,559.0,WeatherDisplay:10.37,2013-04-08 09:00:00,
2013-04-08 11:10:00,57.7,39.2,29.82,WNW,287,0.0,3.0,50,0.00,SCT,,0.00,497.0,WeatherDisplay:10.37,2013-04-08 09:10:00,
2013-04-08 11:15:00,58.8,40.2,29.83,WNW,298,0.0,4.0,50,0.00,SCT,,0.00,552.0,WeatherDisplay:10.37,2013-04-08 09:15:00,
2013-04-08 11:25:00,56.3,38.3,29.83,WSW,257,0.0,5.0,51,0.00,SCT,,0.00,510.0,WeatherDisplay:10.37,2013-04-08 09:25:00,
2013-04-08 11:35:00,57.6,39.6,29.83,West,259,0.0,3.0,51,0.00,SCT,,0.00,638.0,WeatherDisplay:10.37,2013-04-08 09:35:00,
2013-04-08 11:40:00,57.5,39.5,29.83,West,273,3.0,6.0,51,0.00,FEW,,0.00,714.0,WeatherDisplay:10.37,2013-04-08 09:40:00,
2013-04-08 11:45:00,58.4,39.8,29.83,West,281,1.0,4.0,50,0.00,FEW,,0.00,624.0,WeatherDisplay:10.37,2013-04-08 09:45:00,
2013-04-08 11:50:00,58.8,39.7,29.83,WNW,285,2.0,6.0,49,0.00,FEW,,0.00,731.0,WeatherDisplay:10.37,2013-04-08 09:50:00,
2013-04-08 11:55:00,58.1,38.5,29.83,WNW,283,2.0,5.0,48,0.00,FEW,,0.00,745.0,WeatherDisplay:10.37,2013-04-08 09:55:00,
2013-04-08 12:00:00,58.7,39.1,29.83,WNW,283,2.0,6.0,48,0.00,FEW,,0.00,670.0,WeatherDisplay:10.37,2013-04-08 10:00:00,
2013-04-08 12:05:00,58.6,40.0,29.83,West,281,6.0,9.0,50,0.00,FEW,,0.00,805.0,WeatherDisplay:10.37,2013-04-08 10:05:00,
2013-04-08 12:10:00,59.3,40.1,29.83,West,274,1.0,7.0,49,0.00,CLR,,0.00,842.0,WeatherDisplay:10.37,2013-04-08 10:10:00,
2013-04-08 12:20:00,58.8,39.7,29.83,WSW,254,7.0,9.0,49,0.00,CLR,,0.00,840.0,WeatherDisplay:10.37,2013-04-08 10:20:00,
2013-04-08 12:25:00,59.4,39.7,29.83,West,272,3.0,10.0,48,0.00,CLR,,0.00,849.0,WeatherDisplay:10.37,2013-04-08 10:25:00,
2013-04-08 12:35:00,61.0,40.6,29.83,West,278,1.0,9.0,47,0.00,CLR,,0.00,854.0,WeatherDisplay:10.37,2013-04-08 10:35:00,
2013-04-08 12:40:00,61.0,40.0,29.83,WNW,293,0.0,9.0,46,0.00,CLR,,0.00,830.0,WeatherDisplay:10.37,2013-04-08 10:40:00,
2013-04-08 12:45:00,60.5,39.6,29.83,West,275,3.0,6.0,46,0.00,CLR,,0.00,833.0,WeatherDisplay:10.37,2013-04-08 10:45:00,
2013-04-08 12:50:00,61.1,41.2,29.83,WSW,258,0.0,4.0,48,0.00,CLR,,0.00,893.0,WeatherDisplay:10.37,2013-04-08 10:50:00,
2013-04-08 13:00:00,61.5,40.0,29.82,West,267,2.0,7.0,45,0.00,CLR,,0.00,773.0,WeatherDisplay:10.37,2013-04-08 11:00:00,
2013-04-08 13:10:00,61.4,41.5,29.82,WSW,252,1.0,5.0,48,0.00,CLR,,0.00,793.0,WeatherDisplay:10.37,2013-04-08 11:10:00,
2013-04-08 13:20:00,61.2,40.8,29.82,West,268,7.0,10.0,47,0.00,CLR,,0.00,891.0,WeatherDisplay:10.37,2013-04-08 11:20:00,
2013-04-08 13:30:00,61.5,40.0,29.82,West,263,5.0,10.0,45,0.00,CLR,,0.00,900.0,WeatherDisplay:10.37,2013-04-08 11:30:00,
2013-04-08 13:35:00,61.5,41.0,29.82,WSW,243,2.0,10.0,47,0.00,CLR,,0.00,895.0,WeatherDisplay:10.37,2013-04-08 11:35:00,
2013-04-08 13:40:00,61.7,40.7,29.82,SW,234,5.0,9.0,46,0.00,CLR,,0.00,889.0,WeatherDisplay:10.37,2013-04-08 11:40:00,
2013-04-08 13:45:00,62.3,41.2,29.82,West,260,5.0,12.0,46,0.00,CLR,,0.00,882.0,WeatherDisplay:10.37,2013-04-08 11:45:00,
2013-04-08 13:50:00,62.3,42.4,29.82,WNW,282,3.0,10.0,48,0.00,CLR,,0.00,867.0,WeatherDisplay:10.37,2013-04-08 11:50:00,
2013-04-08 13:55:00,62.4,43.0,29.82,WSW,256,8.0,13.0,49,0.00,CLR,,0.00,940.0,WeatherDisplay:10.37,2013-04-08 11:55:00,
2013-04-08 14:00:00,62.4,43.5,29.82,WSW,238,3.0,12.0,50,0.00,CLR,,0.00,879.0,WeatherDisplay:10.37,2013-04-08 12:00:00,
2013-04-08 14:05:00,61.7,42.8,29.82,WSW,255,5.0,10.0,50,0.00,CLR,,0.00,645.0,WeatherDisplay:10.37,2013-04-08 12:05:00,
2013-04-08 14:15:00,61.4,43.1,29.82,WNW,287,9.0,14.0,51,0.00,CLR,,0.00,838.0,WeatherDisplay:10.37,2013-04-08 12:15:00,
2013-04-08 14:20:00,61.5,42.1,29.82,West,273,8.0,16.0,49,0.00,CLR,,0.00,821.0,WeatherDisplay:10.37,2013-04-08 12:20:00,
2013-04-08 14:35:00,60.7,40.3,29.81,WNW,287,8.0,16.0,47,0.00,CLR,,0.00,823.0,WeatherDisplay:10.37,2013-04-08 12:35:00,
2013-04-08 14:40:00,60.9,41.6,29.81,WNW,289,8.0,15.0,49,0.00,CLR,,0.00,812.0,WeatherDisplay:10.37,2013-04-08 12:40:00,
2013-04-08 14:45:00,60.6,41.8,29.82,West,275,8.0,15.0,50,0.00,CLR,,0.00,809.0,WeatherDisplay:10.37,2013-04-08 12:45:00,
2013-04-08 14:50:00,61.0,42.7,29.82,West,273,12.0,18.0,51,0.00,CLR,,0.00,802.0,WeatherDisplay:10.37,2013-04-08 12:50:00,
2013-04-08 14:55:00,60.8,45.0,29.81,WNW,286,2.0,17.0,56,0.00,CLR,,0.00,791.0,WeatherDisplay:10.37,2013-04-08 12:55:00,
2013-04-08 15:00:00,60.8,45.9,29.81,WNW,284,9.0,17.0,58,0.00,CLR,,0.00,786.0,WeatherDisplay:10.37,2013-04-08 13:00:00,
2013-04-08 15:05:00,60.5,45.6,29.81,West,280,8.0,18.0,58,0.00,CLR,,0.00,775.0,WeatherDisplay:10.37,2013-04-08 13:05:00,
2013-04-08 15:10:00,61.4,46.5,29.81,West,270,7.0,13.0,58,0.00,CLR,,0.00,782.0,WeatherDisplay:10.37,2013-04-08 13:10:00,
2013-04-08 15:15:00,61.1,46.7,29.80,West,277,9.0,15.0,59,0.00,CLR,,0.00,587.0,WeatherDisplay:10.37,2013-04-08 13:15:00,
2013-04-08 15:20:00,60.7,45.8,29.80,WNW,286,9.0,15.0,58,0.00,CLR,,0.00,592.0,WeatherDisplay:10.37,2013-04-08 13:20:00,
2013-04-08 15:30:00,60.4,46.9,29.81,WSW,254,9.0,14.0,61,0.00,CLR,,0.00,469.0,WeatherDisplay:10.37,2013-04-08 13:30:00,
2013-04-08 15:40:00,60.3,46.8,29.81,West,260,7.0,14.0,61,0.00,FEW,,0.00,401.0,WeatherDisplay:10.37,2013-04-08 13:40:00,
2013-04-08 15:50:00,60.5,47.8,29.81,WSW,257,7.0,15.0,63,0.00,SCT,,0.00,295.0,WeatherDisplay:10.37,2013-04-08 13:50:00,
2013-04-08 15:55:00,59.9,48.5,29.81,West,275,7.0,13.0,66,0.00,SCT,,0.00,302.0,WeatherDisplay:10.37,2013-04-08 13:55:00,
2013-04-08 16:00:00,59.5,48.9,29.81,WNW,285,10.0,15.0,68,0.00,SCT,,0.00,357.0,WeatherDisplay:10.37,2013-04-08 14:00:00,
2013-04-08 16:05:00,59.1,48.9,29.81,WNW,291,8.0,15.0,69,0.00,FEW,,0.00,341.0,WeatherDisplay:10.37,2013-04-08 14:05:00,
2013-04-08 16:10:00,58.9,48.7,29.81,WNW,286,10.0,15.0,69,0.00,FEW,,0.00,330.0,WeatherDisplay:10.37,2013-04-08 14:10:00,
2013-04-08 16:15:00,59.1,48.9,29.81,West,276,7.0,16.0,69,0.00,FEW,,0.00,316.0,WeatherDisplay:10.37,2013-04-08 14:15:00,
2013-04-08 16:20:00,59.3,49.2,29.81,West,267,7.0,12.0,69,0.00,CLR,,0.00,378.0,WeatherDisplay:10.37,2013-04-08 14:20:00,
2013-04-08 16:25:00,59.2,48.3,29.81,West,281,10.0,15.0,67,0.00,CLR,,0.00,362.0,WeatherDisplay:10.37,2013-04-08 14:25:00,
2013-04-08 16:30:00,59.2,47.9,29.82,WNW,283,9.0,17.0,66,0.00,CLR,,0.00,450.0,WeatherDisplay:10.37,2013-04-08 14:30:00,
2013-04-08 16:35:00,59.5,48.1,29.81,West,272,13.0,18.0,66,0.00,CLR,,0.00,497.0,WeatherDisplay:10.37,2013-04-08 14:35:00,
2013-04-08 16:40:00,59.6,47.8,29.81,West,280,9.0,15.0,65,0.00,CLR,,0.00,334.0,WeatherDisplay:10.37,2013-04-08 14:40:00,
2013-04-08 16:50:00,59.9,47.7,29.81,West,275,8.0,16.0,64,0.00,CLR,,0.00,424.0,WeatherDisplay:10.37,2013-04-08 14:50:00,
2013-04-08 16:55:00,60.3,47.2,29.82,WNW,283,13.0,18.0,62,0.00,CLR,,0.00,663.0,WeatherDisplay:10.37,2013-04-08 14:55:00,
2013-04-08 17:00:00,60.2,47.1,29.82,WNW,285,10.0,18.0,62,0.00,CLR,,0.00,359.0,WeatherDisplay:10.37,2013-04-08 15:00:00,
2013-04-08 17:05:00,60.3,47.7,29.81,WNW,283,3.0,20.0,63,0.00,CLR,,0.00,499.0,WeatherDisplay:10.37,2013-04-08 15:05:00,
2013-04-08 17:10:00,59.8,47.6,29.81,West,281,12.0,18.0,64,0.00,CLR,,0.00,487.0,WeatherDisplay:10.37,2013-04-08 15:10:00,
2013-04-08 17:15:00,59.4,47.6,29.81,WNW,285,6.0,17.0,65,0.00,CLR,,0.00,213.0,WeatherDisplay:10.37,2013-04-08 15:15:00,
2013-04-08 17:20:00,59.4,47.2,29.81,WNW,283,6.0,14.0,64,0.00,CLR,,0.00,197.0,WeatherDisplay:10.37,2013-04-08 15:20:00,
2013-04-08 17:25:00,59.3,47.5,29.81,West,272,7.0,13.0,65,0.00,CLR,,0.00,236.0,WeatherDisplay:10.37,2013-04-08 15:25:00,
2013-04-08 17:30:00,59.6,47.8,29.81,West,276,6.0,10.0,65,0.00,CLR,,0.00,306.0,WeatherDisplay:10.37,2013-04-08 15:30:00,
2013-04-08 17:40:00,60.0,47.3,29.81,West,271,3.0,17.0,63,0.00,CLR,,0.00,207.0,WeatherDisplay:10.37,2013-04-08 15:40:00,
2013-04-08 17:50:00,59.4,47.6,29.81,West,265,6.0,13.0,65,0.00,CLR,,0.00,111.0,WeatherDisplay:10.37,2013-04-08 15:50:00,
2013-04-08 17:55:00,59.3,47.5,29.81,West,271,6.0,13.0,65,0.00,CLR,,0.00,90.0,WeatherDisplay:10.37,2013-04-08 15:55:00,
2013-04-08 18:00:00,59.0,47.2,29.81,WNW,284,6.0,12.0,65,0.00,CLR,,0.00,70.0,WeatherDisplay:10.37,2013-04-08 16:00:00,
2013-04-08 18:05:00,58.9,47.6,29.81,West,280,5.0,10.0,66,0.00,FEW,,0.00,40.0,WeatherDisplay:10.37,2013-04-08 16:05:00,
2013-04-08 18:10:00,58.8,47.9,29.82,West,273,5.0,9.0,67,0.00,SCT,,0.00,37.0,WeatherDisplay:10.37,2013-04-08 16:10:00,
2013-04-08 18:15:00,58.7,47.7,29.82,WSW,256,6.0,10.0,67,0.00,SCT,,0.00,42.0,WeatherDisplay:10.37,2013-04-08 16:15:00,
2013-04-08 18:20:00,58.5,47.9,29.82,WSW,244,8.0,12.0,68,0.00,FEW,,0.00,46.0,WeatherDisplay:10.37,2013-04-08 16:20:00,
2013-04-08 18:25:00,58.4,47.8,29.82,West,260,6.0,10.0,68,0.00,CLR,,0.00,54.0,WeatherDisplay:10.37,2013-04-08 16:25:00,
2013-04-08 18:30:00,58.5,48.3,29.82,West,263,0.0,8.0,69,0.00,CLR,,0.00,62.0,WeatherDisplay:10.37,2013-04-08 16:30:00,
2013-04-08 18:35:00,58.3,47.7,29.82,WSW,258,6.0,10.0,68,0.00,CLR,,0.00,62.0,WeatherDisplay:10.37,2013-04-08 16:35:00,
2013-04-08 18:45:00,58.5,48.7,29.82,WSW,255,0.0,0.0,70,0.00,OVC,,0.00,58.0,WeatherDisplay:10.37,2013-04-08 16:45:00,
2013-04-08 18:50:00,58.5,48.8,29.82,WSW,254,0.0,0.0,70,0.00,OVC,,0.00,46.0,WeatherDisplay:10.37,2013-04-08 16:50:00,
2013-04-08 18:55:00,58.4,48.7,29.82,WSW,255,1.0,4.0,70,0.00,OVC,,0.00,39.0,WeatherDisplay:10.37,2013-04-08 16:55:00,
2013-04-08 19:00:00,58.3,48.6,29.82,WSW,256,0.0,2.0,70,0.00,OVC,,0.00,37.0,WeatherDisplay:10.37,2013-04-08 17:00:00,
2013-04-08 19:05:00,58.3,48.6,29.83,WSW,255,0.0,3.0,70,0.00,OVC,,0.00,33.0,WeatherDisplay:10.37,2013-04-08 17:05:00,
2013-04-08 19:10:00,57.7,47.9,29.83,SW,226,0.0,5.0,70,0.00,OVC,,0.00,28.0,WeatherDisplay:10.37,2013-04-08 17:10:00,
2013-04-08 19:15:00,57.3,48.0,29.83,SSW,205,3.0,6.0,71,0.00,OVC,,0.00,26.0,WeatherDisplay:10.37,2013-04-08 17:15:00,
2013-04-08 19:20:00,57.0,48.1,29.83,SSW,205,0.0,5.0,72,0.00,OVC,,0.00,23.0,WeatherDisplay:10.37,2013-04-08 17:20:00,
2013-04-08 19:30:00,56.9,48.0,29.82,SSW,205,1.0,7.0,72,0.00,OVC,,0.00,11.0,WeatherDisplay:10.37,2013-04-08 17:30:00,
2013-04-08 19:40:00,56.9,48.3,29.82,SSW,205,0.0,1.0,73,0.00,OVC,,0.00,0.0,WeatherDisplay:10.37,2013-04-08 17:40:00,
2013-04-08 19:45:00,56.8,48.2,29.82,SSW,205,0.0,2.0,73,0.00,OVC,,0.00,0.0,WeatherDisplay:10.37,2013-04-08 17:45:00,
2013-04-08 19:50:00,56.6,48.0,29.82,South,189,3.0,6.0,73,0.00,OVC,,0.00,0.0,WeatherDisplay:10.37,2013-04-08 17:50:00,
2013-04-08 20:00:00,56.3,48.1,29.82,South,186,0.0,6.0,74,0.00,,,0.00,0.0,WeatherDisplay:10.37,2013-04-08 18:00:00,
2013-04-08 20:05:00,56.3,48.5,29.82,South,186,0.0,1.0,75,0.00,,,0.00,0.0,WeatherDisplay:10.37,2013-04-08 18:05:00,
2013-04-08 20:10:00,56.0,48.2,29.83,South,186,0.0,1.0,75,0.00,,,0.00,0.0,WeatherDisplay:10.37,2013-04-08 18:10:00,
2013-04-08 20:20:00,55.8,48.3,29.83,South,186,0.0,1.0,76,0.00,,,0.00,0.0,WeatherDisplay:10.37,2013-04-08 18:20:00,
2013-04-08 20:25:00,55.8,48.3,29.83,South,186,0.0,2.0,76,0.00,,,0.00,0.0,WeatherDisplay:10.37,2013-04-08 18:25:00,
2013-04-08 20:30:00,55.6,48.2,29.83,South,186,0.0,2.0,76,0.00,,,0.00,0.0,WeatherDisplay:10.37,2013-04-08 18:30:00,
2013-04-08 20:35:00,55.6,48.5,29.84,South,186,0.0,2.0,77,0.00,,,0.00,0.0,WeatherDisplay:10.37,2013-04-08 18:35:00,
2013-04-08 20:45:00,55.5,48.4,29.84,South,186,0.0,1.0,77,0.00,,,0.00,0.0,WeatherDisplay:10.37,2013-04-08 18:45:00,
2013-04-08 20:55:00,55.2,48.5,29.84,South,186,1.0,4.0,78,0.00,,,0.00,0.0,WeatherDisplay:10.37,2013-04-08 18:55:00,
2013-04-08 21:00:00,55.0,48.3,29.84,South,186,2.0,5.0,78,0.00,,,0.00,0.0,WeatherDisplay:10.37,2013-04-08 19:00:00,
2013-04-08 21:05:00,54.9,48.5,29.84,South,186,0.0,5.0,79,0.00,,,0.00,0.0,WeatherDisplay:10.37,2013-04-08 19:05:00,
2013-04-08 21:10:00,54.8,48.5,29.84,South,185,0.0,5.0,79,0.00,,,0.00,0.0,WeatherDisplay:10.37,2013-04-08 19:10:00,
2013-04-08 21:20:00,54.9,48.5,29.84,South,180,2.0,6.0,79,0.00,,,0.00,0.0,WeatherDisplay:10.37,2013-04-08 19:20:00,
2013-04-08 21:30:00,55.2,48.5,29.85,South,176,5.0,8.0,78,0.00,,,0.00,0.0,WeatherDisplay:10.37,2013-04-08 19:30:00,
2013-04-08 21:40:00,55.0,48.6,29.84,South,179,5.0,9.0,79,0.00,,,0.00,0.0,WeatherDisplay:10.37,2013-04-08 19:40:00,
2013-04-08 21:50:00,54.9,48.8,29.84,South,179,2.0,8.0,80,0.00,,,0.00,0.0,WeatherDisplay:10.37,2013-04-08 19:50:00,
2013-04-08 21:55:00,54.8,48.7,29.84,South,176,2.0,6.0,80,0.00,,,0.00,0.0,WeatherDisplay:10.37,2013-04-08 19:55:00,
2013-04-08 22:00:00,54.9,49.2,29.84,South,174,5.0,9.0,81,0.00,,,0.00,0.0,WeatherDisplay:10.37,2013-04-08 20:00:00,
2013-04-08 22:05:00,54.9,49.2,29.84,South,177,0.0,7.0,81,0.00,,,0.00,0.0,WeatherDisplay:10.37,2013-04-08 20:05:00,
2013-04-08 22:15:00,54.8,49.4,29.84,South,177,0.0,4.0,82,0.00,,,0.00,0.0,WeatherDisplay:10.37,2013-04-08 20:15:00,
2013-04-08 22:20:00,54.6,49.2,29.84,South,174,1.0,4.0,82,0.00,,,0.00,0.0,WeatherDisplay:10.37,2013-04-08 20:20:00,
2013-04-08 22:30:00,54.3,49.2,29.84,SSE,167,0.0,4.0,83,0.00,,,0.00,0.0,WeatherDisplay:10.37,2013-04-08 20:30:00,
2013-04-08 22:35:00,54.1,49.0,29.84,SSE,155,0.0,2.0,83,0.00,,,0.00,0.0,WeatherDisplay:10.37,2013-04-08 20:35:00,
2013-04-08 22:40:00,53.9,49.2,29.84,SSE,148,0.0,6.0,84,0.00,,,0.00,0.0,WeatherDisplay:10.37,2013-04-08 20:40:00,
2013-04-08 22:45:00,53.8,49.1,29.84,SE,146,1.0,4.0,84,0.00,,,0.00,0.0,WeatherDisplay:10.37,2013-04-08 20:45:00,
2013-04-08 22:50:00,53.7,49.0,29.84,SSE,147,1.0,4.0,84,0.00,,,0.00,0.0,WeatherDisplay:10.37,2013-04-08 20:50:00,
2013-04-08 22:55:00,53.8,49.1,29.84,SSE,147,1.0,5.0,84,0.00,,,0.00,0.0,WeatherDisplay:10.37,2013-04-08 20:55:00,
2013-04-08 23:05:00,53.7,49.3,29.84,SSE,151,1.0,7.0,85,0.00,,,0.00,0.0,WeatherDisplay:10.37,2013-04-08 21:05:00,
2013-04-08 23:10:00,53.5,49.1,29.84,SSE,155,3.0,6.0,85,0.00,,,0.00,0.0,WeatherDisplay:10.37,2013-04-08 21:10:00,
2013-04-08 23:15:00,53.5,49.1,29.84,SSE,157,1.0,5.0,85,0.00,,,0.00,0.0,WeatherDisplay:10.37,2013-04-08 21:15:00,
2013-04-08 23:25:00,53.5,49.1,29.85,SSE,165,3.0,7.0,85,0.00,,,0.00,0.0,WeatherDisplay:10.37,2013-04-08 21:25:00,
2013-04-08 23:30:00,53.7,49.3,29.85,South,173,3.0,8.0,85,0.00,,,0.00,0.0,WeatherDisplay:10.37,2013-04-08 21:30:00,
2013-04-08 23:35:00,53.9,49.5,29.85,South,175,3.0,7.0,85,0.00,,,0.00,0.0,WeatherDisplay:10.37,2013-04-08 21:35:00,
2013-04-08 23:40:00,53.9,49.5,29.85,South,178,5.0,9.0,85,0.00,,,0.00,0.0,WeatherDisplay:10.37,2013-04-08 21:40:00,
2013-04-08 23:45:00,53.9,49.5,29.85,South,177,5.0,10.0,85,0.00,,,0.00,0.0,WeatherDisplay:10.37,2013-04-08 21:45:00,
2013-04-08 23:55:00,54.0,49.6,29.85,South,174,3.0,12.0,85,0.00,,,0.00,0.0,WeatherDisplay:10.37,2013-04-08 21:55:00,